Location: Cazarilh
(42.9578°N, 0.5819°E)
Time: 16:46:22
(UTC+00:00)

Meteor 1-25 Rocket - Pass Details

Date: 11 December 2019
Orbit: 838 x 890 km, 81.2° (Epoch: 20 January)

Event Time Altitude Azimuth Distance (km) Brightness Sun altitude
Rises 05:32:07 0° 204° (SSW) 3,389 7.2 -18.7°
Reaches altitude 10° 05:34:35 10° 209° (SSW) 2,464 6.5 -18.3°
Maximum altitude 05:40:00 50° 285° (WNW) 1,079 4.3 -17.3°
Drops below altitude 10° 05:45:32 10° 0° (N) 2,513 6.5 -16.3°
Sets 05:48:05 0° 6° (N) 3,463 7.3 -15.9°
